Flag Weather past 2 weeks in Oberlin, Ohio, U.S.A.

Now
37 °F

Overcast.


Feels Like: 28 °F
Forecast: 19 / 47 °F
Wind: 14 mph from Southwest

Location: Lorain County Regional Airport

Current Time: Nov 22, 2014 at 11:53:47 AM

Latest Report: Nov 22, 2014 at 10:53 AM


Visibility: 7 mi

Pressure: 30.19 "Hg

Humidity: 93%

Dew point: 35 °F

Location of OberlinLocation

Historic Weather in Oberlin — Graph

°F

Oberlin temperature yesterday

Maximum temperature yesterday: 24 °F (at 1:53 PM)
Minimum temperature yesterday: 15 °F (at 8:53 PM)
Average temperature yesterday: 20 °F

Past Weeks' High & Low Weather Summary

 TemperatureHumidityPressure
High65 °F (Nov 11, 1:53 PM)100% (Nov 16, 8:53 PM)30.53 "Hg (Nov 16, 8:53 PM)
Low10 °F (Nov 18, 5:53 AM)35% (Nov 10, 1:53 PM)29.69 "Hg (Nov 17, 12:53 PM)
Average32 °F71%30.08 "Hg
* Reported Nov 7 10:53 AM — Nov 22 10:53 AM, Oberlin, Weather by CustomWeather, © 2014

Note: Actual official high and low records may vary slightly from our data, if they occured in-between our weather recording intervals... More about our weather records

Advertising

Oberlin weather history for previous 24 hours

 ConditionsComfort  
Time TempWeatherWind HumidityBarometerVisibility
10:53 AM
Nov 22
37 °FOvercast.14 mph93%30.19 "Hg7 mi
9:53 AM35 °FMore clouds than sun.13 mph92%30.20 "Hg7 mi
8:53 AM33 °FLight rain. Fog.13 mph88%30.22 "Hg4 mi
8:00 AM33 °FLight freezing rain. Cloudy.13 mph75%30.20 "Hg4 mi
6:53 AM29 °FLight snow. Mostly cloudy.10 mph61%30.26 "Hg7 mi
5:53 AM26 °FPassing clouds.13 mph55%30.28 "Hg10 mi
4:53 AM24 °FPassing clouds.13 mph57%30.30 "Hg10 mi
3:53 AM21 °FPassing clouds.14 mph62%30.31 "Hg10 mi
2:53 AM20 °FClear.13 mph65%30.36 "Hg10 mi
1:53 AM19 °FClear.13 mph65%30.38 "Hg10 mi
12:53 AM19 °FClear.12 mph65%30.40 "Hg10 mi
11:53 PM
Nov 21
18 °FClear.10 mph68%30.42 "Hg10 mi
10:53 PM17 °FClear.7 mph70%30.44 "Hg10 mi
9:53 PM18 °FClear.8 mph68%30.45 "Hg10 mi
8:53 PM15 °FClear.5 mph77%30.47 "Hg10 mi
7:53 PM18 °FClear.6 mph71%30.48 "Hg10 mi
6:53 PM19 °FClear.6 mph65%30.50 "Hg10 mi
5:53 PM20 °FClear.5 mph65%30.51 "Hg10 mi
4:53 PM22 °FSunny.10 mph62%30.53 "Hg10 mi
3:53 PM24 °FSunny.10 mph57%30.52 "Hg10 mi
2:53 PM24 °FPartly sunny.9 mph57%30.52 "Hg10 mi
1:53 PM24 °FPartly sunny.10 mph55%30.52 "Hg10 mi
12:53 PM23 °FScattered clouds.12 mph57%30.52 "Hg10 mi
11:53 AM23 °FOvercast.9 mph65%30.53 "Hg9 mi
Weather by CustomWeather, © 2014

See weather overviewHow to use our weather pages